Zurück zum Katalog

SATORO-T3

AktivWissenschaftSSO
NORAD 64589·PAYLOAD·🇸🇬 Singapore

Gestartet Jun 23, 2025 von Vandenberg Space Force Base

Loading…

Nächste Überflüge (nächste 24 Stunden)

TLE

AktuellSource: Space-Track

Epoche: Sep 14, 2026, 13:05 UTC

1 64589U 25135BP  26257.54544803  .00003203  00000-0  30030-3 0  9990
2 64589  97.7793  11.2141 0005826  47.6558 312.5155 14.94715011 67257

Verfolge SATORO-T3 in Echtzeit mit AllMySat

Download on the App Store